EW0609 Weather Reports


Display with metric or nautical units.
time (UTC)temp
F
wind
direction
speed
MPH
gust
MPH
rain 1hr
in
rain 24hr
in
rain mn
in
humidity
%
barometer
mb
20260509192227 87 341 3.0 11.0 0.00 0.00 0.00 25 1009.9
20260509191338 88 259 3.0 13.0 0.00 0.00 0.00 25 1010.0
20260509190837 89 235 9.0 13.0 0.00 0.00 0.00 25 1010.1
20260509190338 89 233 4.0 10.0 0.00 0.00 0.00 26 1010.1
20260509190124 87 221 5.0 13.0 0.00 0.00 0.00 26 1010.4
20260509190011 87 295 3.0 13.0 0.00 0.00 0.00 27 1010.1
20260509184838 87 247 5.0 15.0 0.00 0.00 0.00 25 1010.5
20260509184338 86 154 6.0 15.0 0.00 0.00 0.00 24 1010.6
20260509184221 87 252 6.0 15.0 0.00 0.00 0.00 26 1010.7
20260509183337 87 227 6.0 15.0 0.00 0.00 0.00 25 1010.6
20260509182837 87 240 9.0 15.0 0.00 0.00 0.00 25 1010.8
20260509182337 87 212 7.0 14.0 0.00 0.00 0.00 27 1010.8
20260509181839 86 240 5.0 14.0 0.00 0.00 0.00 26 1010.9
20260509181339 86 230 5.0 17.0 0.00 0.00 0.00 26 1011.0
20260509180838 86 235 9.0 17.0 0.00 0.00 0.00 27 1011.1
20260509180338 86 159 4.0 14.0 0.00 0.00 0.00 27 1011.3
20260509175838 87 254 4.0 14.0 0.00 0.00 0.00 27 1011.3
20260509175338 86 171 5.0 10.0 0.00 0.00 0.00 30 1011.4
20260509174837 86 231 5.0 12.0 0.00 0.00 0.00 31 1011.4
20260509174339 86 100 5.0 12.0 0.00 0.00 0.00 30 1011.5
20260509174126 84 196 5.0 13.0 0.00 0.00 0.00 31 1011.5
20260509174009 85 220 6.0 12.0 0.00 0.00 0.00 30 1011.5
20260509172838 84 251 6.0 15.0 0.00 0.00 0.00 32 1011.6
20260509172340 83 250 10.0 15.0 0.00 0.00 0.00 31 1011.9
20260509171840 84 250 3.0 14.0 0.00 0.00 0.00 31 1011.9
20260509171338 83 161 4.0 16.0 0.00 0.00 0.00 34 1011.9
20260509171226 82 214 10.0 17.0 0.00 0.00 0.00 32 1012.0
20260509170339 83 221 8.0 17.0 0.00 0.00 0.00 32 1012.2
20260509165838 83 202 6.0 18.0 0.00 0.00 0.00 32 1012.2
20260509165338 82 210 7.0 18.0 0.00 0.00 0.00 34 1012.2
20260509164838 82 171 8.0 16.0 0.00 0.00 0.00 32 1012.4
20260509164337 82 171 5.0 16.0 0.00 0.00 0.00 33 1012.4
20260509163837 82 97 4.0 13.0 0.00 0.00 0.00 34 1012.4
20260509163338 82 159 6.0 13.0 0.00 0.00 0.00 35 1012.4
20260509162838 82 192 6.0 17.0 0.00 0.00 0.00 35 1012.5
20260509162339 80 162 9.0 17.0 0.00 0.00 0.00 36 1012.6
20260509161837 80 142 7.0 16.0 0.00 0.00 0.00 37 1012.6
20260509161338 80 185 6.0 16.0 0.00 0.00 0.00 37 1012.6
20260509160837 80 142 8.0 16.0 0.00 0.00 0.00 35 1012.6
20260509160618 79 135 7.0 19.0 0.00 0.00 0.00 36 1012.7
20260509160507 79 166 6.0 19.0 0.00 0.00 0.00 37 1012.7
20260509155338 79 202 5.0 13.0 0.00 0.00 0.00 38 1012.6
20260509154838 78 180 7.0 14.0 0.00 0.00 0.00 39 1012.7
20260509154337 78 180 8.0 14.0 0.00 0.00 0.00 40 1012.9
20260509153839 78 171 7.0 12.0 0.00 0.00 0.00 40 1013.0
20260509153338 77 142 6.0 12.0 0.00 0.00 0.00 43 1012.9
20260509152838 76 204 3.0 10.0 0.00 0.00 0.00 42 1012.9
20260509152338 76 116 6.0 11.0 0.00 0.00 0.00 45 1013.0
20260509151837 76 130 6.0 11.0 0.00 0.00 0.00 43 1013.0
20260509151337 75 148 5.0 11.0 0.00 0.00 0.00 44 1013.2
20260509150836 74 158 4.0 7.0 0.00 0.00 0.00 46 1013.3
20260509150336 74 152 2.0 5.0 0.00 0.00 0.00 47 1013.3
20260509145837 73 110 0.0 6.0 0.00 0.00 0.00 50 1013.4
20260509145508 71 120 4.0 7.0 0.00 0.00 0.00 52 1013.4
20260509145458 71 128 1.0 6.0 0.00 0.00 0.00 53 1013.4
20260509145422 72 134 3.0 6.0 0.00 0.00 0.00 51 1013.4
20260509144121 71 155 4.0 7.0 0.00 0.00 0.00 55 1013.4
20260509144009 71 166 3.0 7.0 0.00 0.00 0.00 53 1013.5
20260509143228 69 192 3.0 7.0 0.00 0.00 0.00 58 1013.5
20260509142337 68 212 0.0 5.0 0.00 0.00 0.00 60 1013.5
20260509141838 68 134 1.0 5.0 0.00 0.00 0.00 61 1013.5
20260509141719 68 207 3.0 5.0 0.00 0.00 0.00 61 1013.6
20260509141223 67 107 1.0 4.0 0.00 0.00 0.00 62 1013.6
20260509140728 67 144 2.0 3.0 0.00 0.00 0.00 61 1013.6
20260509135839 66 216 1.0 4.0 0.00 0.00 0.00 61 1013.6
20260509135337 65 99 2.0 4.0 0.00 0.00 0.00 61 1013.6
20260509135228 65 138 0.0 0.0 0.00 0.00 0.00 60 1013.5
20260509134338 64 141 0.0 0.0 0.00 0.00 0.00 60 1013.5
20260509133837 64 0 0.0 0.0 0.00 0.00 0.00 59 1013.6
20260509133338 63 141 0.0 0.0 0.00 0.00 0.00 57 1013.6
20260509132837 62 141 0.0 0.0 0.00 0.00 0.00 57 1013.6
20260509132337 62 141 0.0 2.0 0.00 0.00 0.00 58 1013.7
20260509131836 61 141 0.0 3.0 0.00 0.00 0.00 56 1013.7
20260509131339 61 103 1.0 3.0 0.00 0.00 0.00 55 1013.6
20260509130838 60 100 1.0 2.0 0.00 0.00 0.00 57 1013.5
20260509130722 59 124 0.0 2.0 0.00 0.00 0.00 57 1013.5
20260509125838 58 159 0.0 2.0 0.00 0.00 0.00 57 1013.5
20260509125337 58 159 0.0 3.0 0.00 0.00 0.00 58 1013.4
20260509124838 57 182 1.0 3.0 0.00 0.00 0.00 59 1013.3
20260509124338 56 116 0.0 3.0 0.00 0.00 0.00 61 1013.4
20260509124222 55 168 0.0 2.0 0.00 0.00 0.00 61 1013.3
20260509123729 55 162 0.0 3.0 0.00 0.00 0.00 62 1013.3
20260509122837 54 180 0.0 3.0 0.00 0.00 0.00 62 1013.3
20260509122337 54 142 0.0 3.0 0.00 0.00 0.00 63 1013.3
20260509121838 53 190 1.0 3.0 0.00 0.00 0.00 63 1013.3
20260509121736 54 166 0.0 3.0 0.00 0.00 0.00 62 1013.2
20260509120838 53 148 1.0 3.0 0.00 0.00 0.00 63 1013.2
20260509120337 53 155 0.0 3.0 0.00 0.00 0.00 63 1013.3
20260509115839 53 186 0.0 0.0 0.00 0.00 0.00 63 1013.3
20260509115338 53 186 0.0 2.0 0.00 0.00 0.00 63 1013.2
20260509114840 53 183 0.0 2.0 0.00 0.00 0.00 62 1013.2
20260509114338 53 171 0.0 1.0 0.00 0.00 0.00 62 1013.0
20260509113838 53 175 0.0 2.0 0.00 0.00 0.00 61 1013.2
20260509113337 53 166 1.0 3.0 0.00 0.00 0.00 61 1013.2
20260509113225 54 161 0.0 3.0 0.00 0.00 0.00 60 1013.2
20260509112338 54 166 0.0 2.0 0.00 0.00 0.00 60 1013.2
20260509111837 54 173 0.0 2.0 0.00 0.00 0.00 59 1013.0
20260509111338 55 161 0.0 5.0 0.00 0.00 0.00 58 1013.2
20260509110838 55 133 2.0 5.0 0.00 0.00 0.00 58 1013.2
20260509110338 55 106 2.0 5.0 0.00 0.00 0.00 58 1013.4
20260509105838 55 103 2.0 6.0 0.00 0.00 0.00 58 1013.4
20260509105337 55 118 3.0 6.0 0.00 0.00 0.00 57 1013.5
20260509104836 55 149 2.0 4.0 0.00 0.00 0.00 57 1013.5
20260509104338 56 145 2.0 6.0 0.00 0.00 0.00 56 1013.4
20260509103838 56 145 2.0 7.0 0.00 0.00 0.00 56 1013.4
20260509103337 56 110 3.0 7.0 0.00 0.00 0.00 56 1013.4
20260509102837 56 117 4.0 9.0 0.00 0.00 0.00 56 1013.4
20260509102340 56 131 2.0 9.0 0.00 0.00 0.00 55 1013.5
20260509101837 56 124 4.0 9.0 0.00 0.00 0.00 55 1013.5
20260509101337 56 155 4.0 9.0 0.00 0.00 0.00 54 1013.5
20260509101227 56 99 2.0 6.0 0.00 0.00 0.00 54 1013.4
20260509100338 56 147 2.0 6.0 0.00 0.00 0.00 54 1013.6
20260509095837 56 173 3.0 6.0 0.00 0.00 0.00 54 1013.5
20260509095338 56 118 2.0 7.0 0.00 0.00 0.00 54 1013.6
20260509094841 56 134 3.0 7.0 0.00 0.00 0.00 54 1013.6
20260509094338 56 120 3.0 7.0 0.00 0.00 0.00 54 1013.5
20260509094227 56 124 3.0 7.0 0.00 0.00 0.00 53 1013.6
20260509093339 56 144 4.0 9.0 0.00 0.00 0.00 52 1013.4
20260509092839 57 123 3.0 9.0 0.00 0.00 0.00 52 1013.4
20260509092339 57 104 5.0 9.0 0.00 0.00 0.00 52 1013.4
20260509091838 57 124 4.0 10.0 0.00 0.00 0.00 51 1013.3
20260509091339 57 104 6.0 10.0 0.00 0.00 0.00 51 1013.2
20260509090837 57 111 6.0 10.0 0.00 0.00 0.00 51 1013.2
20260509090337 57 134 5.0 7.0 0.00 0.00 0.00 51 1013.2
20260509085838 57 134 4.0 7.0 0.00 0.00 0.00 51 1013.3
20260509085337 57 117 4.0 7.0 0.00 0.00 0.00 51 1013.3
20260509085228 57 133 4.0 10.0 0.00 0.00 0.00 50 1013.4
20260509084337 58 117 5.0 10.0 0.00 0.00 0.00 50 1013.5
20260509083837 58 96 4.0 11.0 0.00 0.00 0.00 50 1013.4
20260509083337 58 103 6.0 11.0 0.00 0.00 0.00 50 1013.4
20260509082837 58 134 6.0 10.0 0.00 0.00 0.00 50 1013.3
20260509082721 58 114 6.0 10.0 0.00 0.00 0.00 50 1013.3
20260509082222 58 104 6.0 10.0 0.00 0.00 0.00 50 1013.3
20260509081337 58 103 5.0 12.0 0.00 0.00 0.00 50 1013.3
20260509081219 58 120 6.0 12.0 0.00 0.00 0.00 50 1013.3
20260509080337 58 114 5.0 12.0 0.00 0.00 0.00 49 1013.3
20260509075837 58 111 4.0 12.0 0.00 0.00 0.00 49 1013.3
20260509075337 59 120 4.0 12.0 0.00 0.00 0.00 49 1013.4
20260509075229 59 117 8.0 12.0 0.00 0.00 0.00 48 1013.3
20260509074337 59 133 6.0 13.0 0.00 0.00 0.00 47 1013.5
20260509073837 60 111 6.0 13.0 0.00 0.00 0.00 46 1013.4
20260509073337 62 121 8.0 15.0 0.00 0.00 0.00 44 1013.4
20260509072838 63 124 6.0 15.0 0.00 0.00 0.00 43 1013.3
20260509072337 63 100 6.0 14.0 0.00 0.00 0.00 43 1013.2
20260509071838 63 79 6.0 14.0 0.00 0.00 0.00 43 1013.2
20260509071724 63 125 6.0 12.0 0.00 0.00 0.00 43 1013.0
20260509070837 63 56 5.0 13.0 0.00 0.00 0.00 43 1013.2
20260509070337 63 85 5.0 13.0 0.00 0.00 0.00 43 1012.9
20260509070222 62 104 4.0 10.0 0.00 0.00 0.00 43 1013.0
20260509065336 62 79 4.0 9.0 0.00 0.00 0.00 43 1013.0
20260509064839 62 76 4.0 9.0 0.00 0.00 0.00 43 1013.2
20260509064716 63 90 3.0 9.0 0.00 0.00 0.00 42 1013.0
20260509063839 64 65 4.0 9.0 0.00 0.00 0.00 42 1012.8
20260509063337 64 87 2.0 9.0 0.00 0.00 0.00 41 1012.8
20260509062837 64 102 3.0 12.0 0.00 0.00 0.00 41 1012.9
20260509062337 65 87 2.0 14.0 0.00 0.00 0.00 41 1012.8
20260509062225 65 114 5.0 14.0 0.00 0.00 0.00 41 1013.2
20260509061336 65 92 6.0 13.0 0.00 0.00 0.00 41 1013.0
20260509060836 64 86 3.0 7.0 0.00 0.00 0.00 41 1013.2
20260509060338 65 54 3.0 9.0 0.00 0.00 0.00 41 1013.0
20260509055838 65 94 4.0 9.0 0.00 0.00 0.00 40 1013.3
20260509055337 65 90 4.0 10.0 0.00 0.00 0.00 40 1013.2
20260509054837 65 106 5.0 10.0 0.00 0.00 0.00 39 1013.0
20260509054337 66 110 5.0 9.0 0.00 0.00 0.00 39 1013.2
20260509053837 66 109 4.0 9.0 0.00 0.00 0.00 39 1013.2
20260509053337 66 103 4.0 9.0 0.00 0.00 0.00 39 1013.0
20260509052837 66 99 6.0 9.0 0.00 0.00 0.00 39 1013.2
20260509052337 66 109 3.0 12.0 0.00 0.00 0.00 39 1013.2
20260509051841 66 93 3.0 12.0 0.00 0.00 0.00 38 1012.9
20260509051337 66 103 5.0 7.0 0.00 0.00 0.00 38 1013.4
20260509050838 66 128 4.0 7.0 0.00 0.00 0.00 39 1013.2
20260509050337 66 113 2.0 9.0 0.00 0.00 0.00 38 1013.0
20260509045838 67 109 5.0 9.0 0.00 0.00 0.00 38 1013.3
20260509045731 67 117 5.0 9.0 0.00 0.00 0.00 37 1013.2
20260509044837 67 106 4.0 7.0 0.00 0.00 0.00 37 1013.2
20260509044336 67 97 4.0 5.0 0.00 0.00 0.00 37 1013.3
20260509043836 68 134 2.0 5.0 0.00 0.00 0.00 37 1013.2
20260509043336 67 103 0.0 6.0 0.00 0.00 0.00 37 1013.3
20260509042838 67 106 3.0 6.0 0.00 0.00 0.00 37 1013.3
20260509042729 67 100 2.0 6.0 0.00 0.00 0.00 37 1013.2
20260509041837 68 107 3.0 6.0 0.00 0.00 0.00 37 1013.2
20260509041336 68 109 3.0 7.0 0.00 0.00 0.00 37 1013.2
20260509040836 68 110 4.0 7.0 0.00 0.00 0.00 36 1013.2
20260509040716 68 103 4.0 6.0 0.00 0.00 0.00 36 1013.2
20260509035836 68 107 3.0 5.0 0.00 0.00 0.00 37 1013.2
20260509035337 68 89 1.0 4.0 0.00 0.00 0.00 36 1013.0
20260509034837 69 93 2.0 3.0 0.00 0.00 0.00 36 1013.0
20260509034336 69 107 0.0 7.0 0.00 0.00 0.00 35 1012.9
20260509033836 69 87 2.0 7.0 0.00 0.00 0.00 35 1012.9
20260509033724 70 103 2.0 6.0 0.00 0.00 0.00 35 1012.9
20260509032837 70 97 3.0 6.0 0.00 0.00 0.00 34 1012.9
20260509032336 70 113 2.0 4.0 0.00 0.00 0.00 34 1012.8
20260509031836 70 110 1.0 4.0 0.00 0.00 0.00 34 1012.7
20260509031336 70 96 1.0 4.0 0.00 0.00 0.00 34 1012.6
20260509030836 70 68 0.0 5.0 0.00 0.00 0.00 34 1012.5
20260509030341 70 114 2.0 5.0 0.00 0.00 0.00 34 1012.6
20260509025836 70 103 1.0 3.0 0.00 0.00 0.00 33 1012.5
20260509025336 71 106 0.0 3.0 0.00 0.00 0.00 32 1012.4
20260509024836 71 100 1.0 3.0 0.00 0.00 0.00 32 1012.3
20260509024336 71 51 0.0 3.0 0.00 0.00 0.00 32 1012.4
20260509023837 71 111 0.0 3.0 0.00 0.00 0.00 31 1012.2
20260509023337 72 116 0.0 3.0 0.00 0.00 0.00 31 1012.0
20260509022837 72 97 1.0 3.0 0.00 0.00 0.00 31 1012.0
20260509022335 72 99 1.0 2.0 0.00 0.00 0.00 31 1011.9
20260509021835 72 23 0.0 4.0 0.00 0.00 0.00 31 1012.0
20260509021728 73 69 1.0 4.0 0.00 0.00 0.00 30 1011.8
20260509020836 73 90 0.0 2.0 0.00 0.00 0.00 30 1011.8
20260509020721 74 107 1.0 3.0 0.00 0.00 0.00 30 1011.6
20260509020230 74 21 1.0 3.0 0.00 0.00 0.00 30 1011.8
20260509015340 74 20 0.0 2.0 0.00 0.00 0.00 29 1011.7
20260509014836 74 0 0.0 3.0 0.00 0.00 0.00 29 1011.7
20260509014337 75 44 0.0 6.0 0.00 0.00 0.00 29 1011.7
20260509014220 75 27 2.0 6.0 0.00 0.00 0.00 29 1011.5
20260509013336 75 35 2.0 6.0 0.00 0.00 0.00 29 1011.5
20260509013226 76 31 3.0 11.0 0.00 0.00 0.00 29 1011.5
20260509012338 76 0 3.0 11.0 0.00 0.00 0.00 29 1011.4
20260509011838 76 16 3.0 9.0 0.00 0.00 0.00 28 1011.4
20260509011336 76 23 2.0 6.0 0.00 0.00 0.00 28 1011.4
20260509010836 76 44 2.0 10.0 0.00 0.00 0.00 28 1011.3
20260509010724 76 1 3.0 10.0 0.00 0.00 0.00 28 1011.4
20260509005836 77 41 6.0 10.0 0.00 0.00 0.00 28 1011.3
20260509005338 77 25 2.0 6.0 0.00 0.00 0.00 28 1011.1
20260509004836 77 0 2.0 10.0 0.00 0.00 0.00 27 1011.1
20260509004734 77 21 5.0 10.0 0.00 0.00 0.00 27 1011.0
20260509003839 78 73 4.0 10.0 0.00 0.00 0.00 27 1011.1
20260509003336 78 0 4.0 9.0 0.00 0.00 0.00 27 1011.0
20260509002836 78 0 3.0 11.0 0.00 0.00 0.00 26 1011.0
20260509002336 79 35 5.0 11.0 0.00 0.00 0.00 26 1011.0
20260509001837 79 10 3.0 11.0 0.00 0.00 0.00 25 1011.0
20260509001336 79 8 6.0 13.0 0.00 0.00 0.00 25 1011.0
20260509000835 79 0 6.0 13.0 0.00 0.00 0.00 25 1011.0
20260509000336 79 11 4.0 10.0 0.00 0.00 0.00 26 1010.9
20260509000220 80 62 4.0 10.0 0.00 0.00 0.00 25 1010.9
20260508235337 80 69 4.0 11.0 0.00 0.00 0.00 28 1010.9
20260508234837 80 25 4.0 12.0 0.00 0.00 0.00 25 1010.9
20260508234336 80 333 6.0 15.0 0.00 0.00 0.00 25 1010.8
20260508233836 81 18 4.0 15.0 0.00 0.00 0.00 25 1010.9
20260508233337 82 0 6.0 15.0 0.00 0.00 0.00 24 1010.9
20260508232836 82 350 7.0 16.0 0.00 0.00 0.00 25 1010.8
20260508232337 82 14 6.0 16.0 0.00 0.00 0.00 25 1010.8
20260508231836 81 0 6.0 14.0 0.00 0.00 0.00 25 1010.9
20260508231637 81 13 4.0 14.0 0.00 0.00 0.00 24 1010.8
20260508231505 81 0 7.0 14.0 0.00 0.00 0.00 25 1010.9
20260508230336 82 61 3.0 14.0 0.00 0.00 0.00 25 1010.9
20260508225837 82 17 4.0 13.0 0.00 0.00 0.00 24 1010.8
20260508225337 82 39 3.0 15.0 0.00 0.00 0.00 24 1010.8
20260508224838 83 90 6.0 17.0 0.00 0.00 0.00 24 1010.9
20260508224339 83 37 7.0 17.0 0.00 0.00 0.00 24 1010.8
20260508224226 83 14 4.0 16.0 0.00 0.00 0.00 24 1010.8
20260508223336 83 4 3.0 17.0 0.00 0.00 0.00 25 1010.8
20260508222837 83 30 9.0 17.0 0.00 0.00 0.00 25 1010.8
20260508222337 83 0 6.0 11.0 0.00 0.00 0.00 24 1010.8
20260508221836 83 351 6.0 15.0 0.00 0.00 0.00 24 1010.8
20260508221337 83 30 4.0 17.0 0.00 0.00 0.00 25 1010.7
20260508221118 83 0 11.0 19.0 0.00 0.00 0.00 24 1010.8
20260508221005 83 7 6.0 19.0 0.00 0.00 0.00 24 1010.8
20260508215835 83 16 6.0 16.0 0.00 0.00 0.00 24 1010.8
20260508215720 84 65 6.0 16.0 0.00 0.00 0.00 24 1010.7
20260508215232 84 0 7.0 15.0 0.00 0.00 0.00 25 1010.8
20260508214337 83 340 5.0 13.0 0.00 0.00 0.00 25 1010.8
20260508213838 83 116 6.0 14.0 0.00 0.00 0.00 24 1010.9
20260508213336 83 34 7.0 14.0 0.00 0.00 0.00 23 1011.0
20260508212838 84 32 3.0 14.0 0.00 0.00 0.00 23 1010.9
20260508212336 83 25 4.0 12.0 0.00 0.00 0.00 24 1010.9
20260508211836 84 52 3.0 15.0 0.00 0.00 0.00 23 1010.9
20260508211336 84 25 4.0 15.0 0.00 0.00 0.00 24 1011.0
20260508210836 85 51 5.0 18.0 0.00 0.00 0.00 24 1010.9
20260508210335 85 42 7.0 18.0 0.00 0.00 0.00 24 1010.9
20260508205836 85 0 8.0 19.0 0.00 0.00 0.00 22 1011.0
20260508205337 84 0 10.0 19.0 0.00 0.00 0.00 24 1011.1
20260508204837 84 54 4.0 18.0 0.00 0.00 0.00 23 1011.0
20260508204727 84 18 6.0 15.0 0.00 0.00 0.00 24 1011.1
20260508203837 85 49 6.0 15.0 0.00 0.00 0.00 23 1011.1
20260508203723 84 357 5.0 16.0 0.00 0.00 0.00 22 1011.0
20260508202835 85 331 5.0 17.0 0.00 0.00 0.00 23 1011.1
20260508202336 85 14 8.0 18.0 0.00 0.00 0.00 21 1011.3
20260508202228 84 0 6.0 18.0 0.00 0.00 0.00 22 1011.3
20260508201337 85 320 9.0 17.0 0.00 0.00 0.00 21 1011.3
20260508200835 85 0 7.0 17.0 0.00 0.00 0.00 21 1011.3
20260508200338 85 0 4.0 19.0 0.00 0.00 0.00 21 1011.3
20260508195836 85 18 6.0 21.0 0.00 0.00 0.00 24 1011.3
20260508195336 85 0 10.0 21.0 0.00 0.00 0.00 24 1011.3
20260508195223 85 0 4.0 14.0 0.00 0.00 0.00 24 1011.3
20260508194337 85 32 3.0 17.0 0.00 0.00 0.00 23 1011.3
20260508193836 85 14 7.0 17.0 0.00 0.00 0.00 23 1011.3
20260508193335 85 3 6.0 14.0 0.00 0.00 0.00 24 1011.1
20260508192837 84 41 4.0 16.0 0.00 0.00 0.00 23 1011.1
20260508192336 85 0 4.0 16.0 0.00 0.00 0.00 24 1011.3